• In Czech Republic
  • List of Countries
  • For 7 days
  • Water Temperature
  • Satellite Maps
  • Weather Map
  • Weather Widgets
  • user-avatar
    Login

    Hourly Weather Canberra

    Today, 14 December, Thursday

    Time Temperature Precipitation Wind Pressure Humidity
    00:00 +22°C° 0 mm 1 mps 705 mmHg 38%
    01:00 +21°C° 0 mm 1 mps 705 mmHg 40%
    02:00 +21°C° 0 mm 1 mps 704 mmHg 41%
    03:00 +21°C° 0 mm 1 mps 704 mmHg 42%
    04:00 +20°C° 0 mm 1 mps 704 mmHg 44%
    05:00 +21°C° 0 mm 2 mps 704 mmHg 41%
    06:00 +24°C° 0 mm 2 mps 705 mmHg 38%
    07:00 +26°C° 0 mm 3 mps 705 mmHg 35%
    08:00 +29°C° 0 mm 5 mps 705 mmHg 32%
    09:00 +32°C° 0 mm 6 mps 705 mmHg 29%
    10:00 +34°C° 0 mm 7 mps 705 mmHg 26%
    11:00 +35°C° 0 mm 7 mps 705 mmHg 24%
    12:00 +35°C° 0 mm 7 mps 705 mmHg 23%
    13:00 +37°C° 0 mm 8 mps 705 mmHg 22%
    14:00 +35°C° 0 mm 7 mps 704 mmHg 24%
    15:00 +34°C° 0 mm 6 mps 704 mmHg 26%
    16:00 +34°C° 0 mm 5 mps 703 mmHg 28%
    17:00 +32°C° 0 mm 4 mps 704 mmHg 32%
    18:00 +29°C° 0 mm 3 mps 704 mmHg 36%
    19:00 +28°C° 0 mm 3 mps 704 mmHg 40%
    20:00 +26°C° 0.1 mm 2 mps 705 mmHg 46%
    21:00 +25°C° 0.1 mm 2 mps 705 mmHg 52%
    22:00 +23°C° 0.1 mm 2 mps 706 mmHg 58%
    23:00 +21°C° 0 mm 2 mps 706 mmHg 62%

    Tomorrow, 15 December, Friday

    Time Temperature Precipitation Wind Pressure Humidity
    00:00 +21°C° 0 mm 1 mps 706 mmHg 67%
    01:00 +21°C° 0 mm 1 mps 706 mmHg 71%
    02:00 +20°C° 0 mm 1 mps 706 mmHg 76%
    03:00 +19°C° 0 mm 1 mps 706 mmHg 80%
    04:00 +18°C° 0 mm 2 mps 706 mmHg 84%
    05:00 +18°C° 0 mm 2 mps 706 mmHg 82%
    06:00 +19°C° 0 mm 2 mps 707 mmHg 80%
    07:00 +20°C° 0 mm 2 mps 707 mmHg 78%
    08:00 +23°C° 0 mm 2 mps 707 mmHg 70%
    09:00 +25°C° 0 mm 2 mps 708 mmHg 61%
    10:00 +27°C° 0 mm 2 mps 708 mmHg 52%
    11:00 +28°C° 0 mm 3 mps 708 mmHg 47%
    12:00 +30°C° 0 mm 3 mps 707 mmHg 41%
    13:00 +33°C° 0 mm 3 mps 707 mmHg 35%
    14:00 +33°C° 0 mm 3 mps 707 mmHg 34%
    15:00 +33°C° 0 mm 3 mps 706 mmHg 33%
    16:00 +33°C° 0 mm 3 mps 706 mmHg 32%
    17:00 +30°C° 0 mm 3 mps 706 mmHg 38%
    18:00 +28°C° 0 mm 2 mps 706 mmHg 44%
    19:00 +26°C° 0 mm 1 mps 706 mmHg 49%
    20:00 +25°C° 0 mm 1 mps 706 mmHg 54%
    21:00 +23°C° 0 mm 1 mps 706 mmHg 60%
    22:00 +22°C° 0 mm 1 mps 707 mmHg 65%
    23:00 +21°C° 0 mm 1 mps 707 mmHg 68%

    Day after tomorrow, 16 December, Saturday

    Time Temperature Precipitation Wind Pressure Humidity
    00:00 +21°C° 0 mm 1 mps 706 mmHg 72%
    01:00 +20°C° 0 mm 1 mps 706 mmHg 75%
    02:00 +20°C° 0 mm 1 mps 706 mmHg 75%
    03:00 +20°C° 0 mm 1 mps 706 mmHg 74%
    04:00 +20°C° 0 mm 1 mps 706 mmHg 74%
    05:00 +22°C° 0 mm 1 mps 707 mmHg 66%
    06:00 +25°C° 0 mm 1 mps 708 mmHg 58%
    07:00 +25°C° 0 mm 0 mps 708 mmHg 50%
    08:00 +29°C° 0 mm 1 mps 709 mmHg 44%
    09:00 +31°C° 0 mm 2 mps 709 mmHg 37%
    10:00 +34°C° 0 mm 3 mps 709 mmHg 31%
    11:00 +34°C° 0 mm 4 mps 709 mmHg 30%
    12:00 +34°C° 0 mm 4 mps 709 mmHg 30%
    13:00 +34°C° 0 mm 4 mps 708 mmHg 30%
    14:00 +34°C° 0 mm 4 mps 708 mmHg 30%
    15:00 +34°C° 0 mm 4 mps 708 mmHg 30%
    16:00 +34°C° 0 mm 4 mps 708 mmHg 30%
    17:00 +31°C° 0 mm 3 mps 708 mmHg 36%
    18:00 +29°C° 0 mm 2 mps 708 mmHg 43%
    19:00 +27°C° 0 mm 1 mps 708 mmHg 49%
    20:00 +25°C° 0 mm 2 mps 708 mmHg 57%
    21:00 +24°C° 0 mm 2 mps 709 mmHg 66%
    22:00 +21°C° 0 mm 3 mps 709 mmHg 74%
    23:00 +21°C° 0 mm 3 mps 709 mmHg 79%

    17 December, Sunday

    Time Temperature Precipitation Wind Pressure Humidity
    00:00 +20°C° 0 mm 3 mps 709 mmHg 84%
    01:00 +19°C° 0 mm 3 mps 709 mmHg 89%
    02:00 +19°C° 0 mm 3 mps 709 mmHg 89%
    03:00 +19°C° 0 mm 2 mps 709 mmHg 90%
    04:00 +19°C° 0 mm 2 mps 709 mmHg 90%
    05:00 +19°C° 0 mm 2 mps 709 mmHg 87%
    06:00 +20°C° 0 mm 2 mps 710 mmHg 83%
    07:00 +21°C° 0 mm 3 mps 710 mmHg 80%
    08:00 +24°C° 0 mm 3 mps 710 mmHg 73%
    09:00 +25°C° 0 mm 3 mps 710 mmHg 66%
    10:00 +27°C° 0 mm 3 mps 710 mmHg 59%
    11:00 +29°C° 0.1 mm 3 mps 710 mmHg 53%
    12:00 +31°C° 0.1 mm 2 mps 710 mmHg 47%
    13:00 +34°C° 0.1 mm 2 mps 709 mmHg 40%
    14:00 +33°C° 0.1 mm 3 mps 709 mmHg 43%
    15:00 +33°C° 0.1 mm 3 mps 709 mmHg 46%
    16:00 +31°C° 0.1 mm 3 mps 708 mmHg 49%
    17:00 +28°C° 1 mm 3 mps 708 mmHg 62%
    18:00 +25°C° 1 mm 4 mps 708 mmHg 74%
    19:00 +22°C° 1 mm 4 mps 708 mmHg 87%
    20:00 +21°C° 1.4 mm 4 mps 709 mmHg 89%
    21:00 +20°C° 1.4 mm 4 mps 709 mmHg 91%
    22:00 +20°C° 1.4 mm 4 mps 709 mmHg 93%
    23:00 +19°C° 0.7 mm 3 mps 709 mmHg 94%

    18 December, Monday

    Time Temperature Precipitation Wind Pressure Humidity
    00:00 +19°C° 0.7 mm 3 mps 709 mmHg 95%
    01:00 +19°C° 0.7 mm 2 mps 708 mmHg 96%
    02:00 +19°C° 0.6 mm 2 mps 708 mmHg 96%
    03:00 +19°C° 0.6 mm 1 mps 708 mmHg 97%
    04:00 +19°C° 0.6 mm 1 mps 708 mmHg 97%
    05:00 +21°C° 0.1 mm 1 mps 708 mmHg 93%
    06:00 +22°C° 0.1 mm 1 mps 708 mmHg 88%
    07:00 +23°C° 0.1 mm 1 mps 708 mmHg 84%
    08:00 +26°C° 0 mm 1 mps 708 mmHg 71%
    09:00 +28°C° 0 mm 2 mps 708 mmHg 59%
    10:00 +31°C° 0 mm 2 mps 709 mmHg 46%
    11:00 +34°C° 0 mm 2 mps 708 mmHg 42%
    12:00 +35°C° 0 mm 2 mps 708 mmHg 37%
    13:00 +36°C° 0 mm 2 mps 707 mmHg 33%
    14:00 +36°C° 0.1 mm 2 mps 707 mmHg 35%
    15:00 +35°C° 0.1 mm 2 mps 707 mmHg 38%
    16:00 +34°C° 0.1 mm 2 mps 706 mmHg 40%
    17:00 +31°C° 0.3 mm 3 mps 706 mmHg 49%
    18:00 +29°C° 0.3 mm 3 mps 706 mmHg 58%
    19:00 +27°C° 0.3 mm 3 mps 706 mmHg 67%
    20:00 +25°C° 0.3 mm 3 mps 706 mmHg 74%
    21:00 +24°C° 0.3 mm 2 mps 706 mmHg 81%
    22:00 +21°C° 0.3 mm 2 mps 706 mmHg 88%
    23:00 +21°C° 0.1 mm 2 mps 706 mmHg 87%

    19 December, Tuesday

    Time Temperature Precipitation Wind Pressure Humidity
    00:00 +21°C° 0.1 mm 2 mps 705 mmHg 87%
    01:00 +20°C° 0.1 mm 2 mps 705 mmHg 86%
    02:00 +21°C° 0 mm 1 mps 705 mmHg 87%
    03:00 +21°C° 0 mm 1 mps 704 mmHg 88%
    04:00 +21°C° 0 mm 1 mps 704 mmHg 90%
    05:00 +22°C° 0 mm 1 mps 704 mmHg 82%
    06:00 +24°C° 0 mm 2 mps 704 mmHg 74%
    07:00 +26°C° 0 mm 2 mps 704 mmHg 67%
    08:00 +29°C° 0 mm 3 mps 704 mmHg 54%
    09:00 +33°C° 0 mm 5 mps 704 mmHg 41%
    10:00 +35°C° 0 mm 6 mps 704 mmHg 29%
    11:00 +38°C° 0 mm 6 mps 703 mmHg 25%
    12:00 +40°C° 0 mm 7 mps 703 mmHg 21%
    13:00 +41°C° 0 mm 7 mps 702 mmHg 17%
    14:00 +40°C° 0 mm 6 mps 702 mmHg 21%
    15:00 +37°C° 0 mm 4 mps 702 mmHg 25%
    16:00 +35°C° 0 mm 3 mps 701 mmHg 28%
    17:00 +32°C° 0 mm 2 mps 701 mmHg 34%
    18:00 +31°C° 0 mm 2 mps 701 mmHg 39%
    19:00 +29°C° 0 mm 1 mps 701 mmHg 45%
    20:00 +28°C° 0 mm 1 mps 701 mmHg 46%
    21:00 +27°C° 0 mm 1 mps 701 mmHg 48%
    22:00 +26°C° 0 mm 1 mps 701 mmHg 50%
    23:00 +26°C° 0 mm 1 mps 701 mmHg 50%
    Show more